When you browse on this site, cookies collect data to enhance your experience and personalize the content and advertising you see.
Visit our Privacy Policy to learn more. By continuing to use the site, you agree to this use of cookies and data.
  • In Österreich
  • Länderverzeichnis
  • Für 7 Tage
  • Wassertemperatur
  • Satellitenkarten
  • Wetterkarte
  • News
  • Widgets
  • user-avatar
    Anmelden

    Stündliche Wetter Stamford

    Heute, 19 Februar, Dienstag

    Zeit Temperatur Niederschläge Wind Luftdruck Luftfeuchtigkeit
    00:00 -6°C° 0 mm 6 m/S 769 mmHg 55%
    01:00 -7°C° 0 mm 5 m/S 770 mmHg 55%
    02:00 -7°C° 0 mm 5 m/S 770 mmHg 55%
    03:00 -7°C° 0 mm 5 m/S 770 mmHg 54%
    04:00 -8°C° 0 mm 4 m/S 771 mmHg 54%
    05:00 -8°C° 0 mm 4 m/S 771 mmHg 54%
    06:00 -8°C° 0 mm 4 m/S 772 mmHg 55%
    07:00 -7°C° 0 mm 3 m/S 772 mmHg 55%
    08:00 -6°C° 0 mm 3 m/S 773 mmHg 51%
    09:00 -5°C° 0 mm 3 m/S 773 mmHg 48%
    10:00 -4°C° 0 mm 3 m/S 774 mmHg 44%
    11:00 -2°C° 0 mm 3 m/S 774 mmHg 41%
    12:00 -1°C° 0 mm 2 m/S 774 mmHg 37%
    13:00 +1°C° 0 mm 2 m/S 774 mmHg 34%
    14:00 +1°C° 0 mm 2 m/S 774 mmHg 35%
    15:00 +1°C° 0 mm 2 m/S 774 mmHg 35%
    16:00 +1°C° 0 mm 2 m/S 774 mmHg 36%
    17:00 0°C° 0 mm 3 m/S 774 mmHg 40%
    18:00 -1°C° 0 mm 3 m/S 775 mmHg 44%
    19:00 -2°C° 0 mm 3 m/S 775 mmHg 48%
    20:00 -4°C° 0 mm 3 m/S 775 mmHg 50%
    21:00 -4°C° 0 mm 3 m/S 775 mmHg 51%
    22:00 -4°C° 0 mm 2 m/S 775 mmHg 53%
    23:00 -4°C° 0 mm 2 m/S 775 mmHg 52%

    Morgen, 20 Februar, Mittwoch

    Zeit Temperatur Niederschläge Wind Luftdruck Luftfeuchtigkeit
    00:00 -4°C° 0 mm 2 m/S 775 mmHg 52%
    01:00 -4°C° 0 mm 2 m/S 776 mmHg 51%
    02:00 -2°C° 0 mm 1 m/S 775 mmHg 51%
    03:00 -2°C° 0 mm 1 m/S 775 mmHg 51%
    04:00 -2°C° 0 mm 1 m/S 775 mmHg 51%
    05:00 -2°C° 0 mm 1 m/S 775 mmHg 51%
    06:00 -3°C° 0 mm 0 m/S 775 mmHg 51%
    07:00 -3°C° 0 mm 0 m/S 775 mmHg 50%
    08:00 -1°C° 0 mm 1 m/S 775 mmHg 48%
    09:00 -1°C° 0 mm 1 m/S 775 mmHg 47%
    10:00 -2°C° 0 mm 2 m/S 775 mmHg 45%
    11:00 -2°C° 0 mm 2 m/S 774 mmHg 46%
    12:00 -1°C° 0 mm 2 m/S 774 mmHg 48%
    13:00 -1°C° 0 mm 3 m/S 774 mmHg 50%
    14:00 -1°C° 0.1 mm 3 m/S 773 mmHg 58%
    15:00 -1°C° 0.1 mm 3 m/S 772 mmHg 66%
    16:00 -1°C° 0.1 mm 3 m/S 772 mmHg 74%
    17:00 -1°C° 0.1 mm 3 m/S 771 mmHg 78%
    18:00 -1°C° 0.1 mm 3 m/S 771 mmHg 82%
    19:00 -1°C° 0.1 mm 3 m/S 770 mmHg 86%
    20:00 -1°C° 0.2 mm 4 m/S 769 mmHg 88%
    21:00 0°C° 0.2 mm 4 m/S 767 mmHg 91%
    22:00 0°C° 0.2 mm 5 m/S 766 mmHg 94%
    23:00 0°C° 3.8 mm 4 m/S 765 mmHg 95%

    übermorgen, 21 Februar, Donnerstag

    Zeit Temperatur Niederschläge Wind Luftdruck Luftfeuchtigkeit
    00:00 +2°C° 3.8 mm 3 m/S 763 mmHg 96%
    01:00 +2°C° 3.8 mm 3 m/S 762 mmHg 98%
    02:00 +3°C° 1 mm 3 m/S 760 mmHg 98%
    03:00 +3°C° 1 mm 3 m/S 759 mmHg 98%
    04:00 +3°C° 1 mm 3 m/S 757 mmHg 98%
    05:00 +4°C° 0.2 mm 3 m/S 757 mmHg 98%
    06:00 +4°C° 0.2 mm 4 m/S 756 mmHg 98%
    07:00 +4°C° 0.2 mm 4 m/S 755 mmHg 98%
    08:00 +6°C° 0 mm 4 m/S 756 mmHg 93%
    09:00 +7°C° 0 mm 5 m/S 756 mmHg 88%
    10:00 +8°C° 0 mm 5 m/S 756 mmHg 83%
    11:00 +9°C° 0 mm 6 m/S 756 mmHg 73%
    12:00 +10°C° 0 mm 6 m/S 756 mmHg 64%
    13:00 +11°C° 0 mm 7 m/S 756 mmHg 54%
    14:00 +10°C° 0 mm 6 m/S 757 mmHg 54%
    15:00 +10°C° 0 mm 6 m/S 757 mmHg 54%
    16:00 +9°C° 0 mm 6 m/S 757 mmHg 54%
    17:00 +8°C° 0 mm 6 m/S 758 mmHg 57%
    18:00 +7°C° 0 mm 5 m/S 759 mmHg 61%
    19:00 +5°C° 0 mm 5 m/S 760 mmHg 65%
    20:00 +3°C° 0 mm 5 m/S 761 mmHg 65%
    21:00 +2°C° 0 mm 6 m/S 762 mmHg 66%
    22:00 +2°C° 0 mm 6 m/S 763 mmHg 66%
    23:00 +1°C° 0 mm 6 m/S 763 mmHg 66%

    22 Februar, Freitag

    Zeit Temperatur Niederschläge Wind Luftdruck Luftfeuchtigkeit
    00:00 +1°C° 0 mm 6 m/S 763 mmHg 67%
    01:00 +1°C° 0 mm 6 m/S 764 mmHg 67%
    02:00 0°C° 0 mm 5 m/S 764 mmHg 67%
    03:00 0°C° 0 mm 5 m/S 765 mmHg 67%
    04:00 0°C° 0 mm 5 m/S 765 mmHg 68%
    05:00 0°C° 0 mm 4 m/S 766 mmHg 68%
    06:00 -1°C° 0 mm 4 m/S 767 mmHg 69%
    07:00 0°C° 0 mm 3 m/S 768 mmHg 70%
    08:00 +1°C° 0 mm 3 m/S 768 mmHg 65%
    09:00 +2°C° 0 mm 3 m/S 769 mmHg 61%
    10:00 +3°C° 0 mm 3 m/S 769 mmHg 56%
    11:00 +4°C° 0 mm 3 m/S 769 mmHg 54%
    12:00 +6°C° 0 mm 2 m/S 769 mmHg 53%
    13:00 +7°C° 0 mm 2 m/S 769 mmHg 51%
    14:00 +7°C° 0 mm 2 m/S 769 mmHg 52%
    15:00 +7°C° 0 mm 2 m/S 769 mmHg 53%
    16:00 +7°C° 0 mm 2 m/S 770 mmHg 54%
    17:00 +6°C° 0 mm 2 m/S 770 mmHg 58%
    18:00 +5°C° 0 mm 2 m/S 771 mmHg 63%
    19:00 +4°C° 0 mm 2 m/S 771 mmHg 68%
    20:00 +5°C° 0 mm 1 m/S 772 mmHg 69%
    21:00 +4°C° 0 mm 1 m/S 772 mmHg 71%
    22:00 +4°C° 0 mm 1 m/S 772 mmHg 72%
    23:00 +3°C° 0 mm 1 m/S 772 mmHg 73%

    23 Februar, Samstag

    Zeit Temperatur Niederschläge Wind Luftdruck Luftfeuchtigkeit
    00:00 +3°C° 0 mm 1 m/S 772 mmHg 74%
    01:00 +3°C° 0 mm 1 m/S 772 mmHg 74%
    02:00 +2°C° 0 mm 1 m/S 772 mmHg 75%
    03:00 +2°C° 0 mm 1 m/S 771 mmHg 76%
    04:00 +2°C° 0 mm 1 m/S 771 mmHg 77%
    05:00 +2°C° 0 mm 1 m/S 771 mmHg 77%
    06:00 +2°C° 0 mm 1 m/S 772 mmHg 76%
    07:00 +1°C° 0 mm 0 m/S 772 mmHg 76%
    08:00 +3°C° 0 mm 1 m/S 772 mmHg 70%
    09:00 +5°C° 0 mm 1 m/S 772 mmHg 64%
    10:00 +6°C° 0 mm 1 m/S 772 mmHg 59%
    11:00 +7°C° 0 mm 1 m/S 771 mmHg 57%
    12:00 +6°C° 0 mm 2 m/S 771 mmHg 55%
    13:00 +7°C° 0 mm 2 m/S 770 mmHg 53%
    14:00 +7°C° 0 mm 2 m/S 769 mmHg 55%
    15:00 +7°C° 0 mm 2 m/S 769 mmHg 56%
    16:00 +7°C° 0 mm 2 m/S 768 mmHg 58%
    17:00 +6°C° 0 mm 2 m/S 768 mmHg 63%
    18:00 +5°C° 0 mm 2 m/S 768 mmHg 68%
    19:00 +4°C° 0 mm 2 m/S 768 mmHg 73%
    20:00 +5°C° 0 mm 2 m/S 767 mmHg 73%
    21:00 +5°C° 0 mm 2 m/S 767 mmHg 74%
    22:00 +5°C° 0 mm 2 m/S 766 mmHg 75%
    23:00 +4°C° 0.3 mm 3 m/S 765 mmHg 79%

    24 Februar, Sonntag

    Zeit Temperatur Niederschläge Wind Luftdruck Luftfeuchtigkeit
    00:00 +4°C° 0.3 mm 3 m/S 764 mmHg 82%
    01:00 +4°C° 0.3 mm 3 m/S 763 mmHg 86%
    02:00 +4°C° 2.2 mm 4 m/S 762 mmHg 89%
    03:00 +4°C° 2.2 mm 4 m/S 760 mmHg 92%
    04:00 +3°C° 2.2 mm 5 m/S 759 mmHg 95%
    05:00 +3°C° 3.9 mm 5 m/S 758 mmHg 95%
    06:00 +5°C° 3.9 mm 5 m/S 757 mmHg 96%
    07:00 +5°C° 3.9 mm 5 m/S 756 mmHg 96%
    08:00 +5°C° 2.6 mm 4 m/S 755 mmHg 96%
    09:00 +6°C° 2.6 mm 4 m/S 755 mmHg 96%
    10:00 +6°C° 2.6 mm 4 m/S 754 mmHg 96%
    11:00 +7°C° 1.1 mm 3 m/S 753 mmHg 96%
    12:00 +7°C° 1.1 mm 2 m/S 752 mmHg 97%
    13:00 +9°C° 1.1 mm 1 m/S 751 mmHg 97%
    14:00 +9°C° 0.1 mm 1 m/S 750 mmHg 97%
    15:00 +9°C° 0.1 mm 1 m/S 749 mmHg 97%
    16:00 +9°C° 0.1 mm 1 m/S 748 mmHg 98%
    17:00 +9°C° 0 mm 2 m/S 748 mmHg 98%
    18:00 +9°C° 0 mm 2 m/S 747 mmHg 98%
    19:00 +9°C° 0 mm 3 m/S 747 mmHg 98%
    20:00 +8°C° 0 mm 4 m/S 747 mmHg 89%
    21:00 +8°C° 0 mm 5 m/S 747 mmHg 80%
    22:00 +8°C° 0 mm 6 m/S 747 mmHg 71%
    23:00 +7°C° 0 mm 6 m/S 748 mmHg 69%
    Mehr zeigen